Madison, WI

5:45 AM CST on November 20, 2019 (GMT -0600)
Dane County Regional-Truax

Weather History for KMSN - June, 2019

Change the Weather History Date:

Saturday, June 8, 2019

  Actual Average Record
Temperature  
Mean Temperature 68 °F 65 °F  
Max Temperature 82 °F 76 °F 92 °F (1964)
Min Temperature 54 °F 54 °F 37 °F (1949)
Degree Days  
Heating Degree Days 0 3  
Month to date heating degree days 14 30  
Since 1 June heating degree days 14 30  
Since 1 July heating degree days 7473 7303  
Cooling Degree Days 3 3  
Month to date cooling degree days 20 17  
Year to date cooling degree days 40 47  
Since 1 June cooling degree days 20 17  
Growing Degree Days 18 (Base 50)    
Moisture  
Dew Point 52 °F    
Average Humidity 56    
Maximum Humidity 78    
Minimum Humidity 33    
Precipitation  
Precipitation 0.00 in 0.15 in 4.11 in (2008)
Month to date precipitation 1.03 1.19  
Year to date precipitation 16.84 13.02  
Snow  
Snow 0.00 in 0.00 in 0.00 in (2018)
Month to date snowfall 0.0 0.0  
Since 1 June snowfall 0.0 0.0  
Since 1 July snowfall 57.2 50.9  
Snow Depth 0.00 in    
Sea Level Pressure  
Sea Level Pressure 30.00 in    
Wind  
Wind Speed 7 mph (East)    
Max Wind Speed 22 mph    
Max Gust Speed 29 mph    
Visibility 10 miles    
Events      
T = Trace of Precipitation, MM = Missing Value Source: NWS Daily Summary

Daily Weather History Graph

Daily Weather History Graph

Search for Another Location

Airport or City:

Astronomy

Jun. 08, 2019 Rise Set
Actual Time 5:17 AM CDT 8:35 PM CDT
Civil Twilight 4:42 AM CDT 9:10 PM CDT
Nautical Twilight 3:57 AM CDT 9:55 PM CDT
Astronomical Twilight 3:01 AM CDT 10:51 PM CDT
Moon 10:49 AM CDT (6/8) 12:33 AM CDT (6/8)
Length of Visible Light 16h 27m
Length of Day
15h 17m
Waxing Crescent, 33% of the Moon is Illuminated
Jun 8
Waxing Crescent
Jun 10
First Quarter
Jun 17
Full
Jun 25
Last Quarter
Jul 2
New

Hourly Weather History & Observations

Time (CDT) Temp. Heat Index Dew Point Humidity Pressure Visibility Wind Dir Wind Speed Gust Speed Precip Events Conditions
12:53 AM 64.0 °F - 54.0 °F 70% 30.00 in 10.0 mi Calm Calm - N/A   Clear
1:53 AM 63.0 °F - 55.0 °F 75% 29.99 in 10.0 mi East 4.6 mph - N/A   Clear
2:53 AM 60.1 °F - 51.1 °F 72% 30.00 in 10.0 mi Calm Calm - N/A   Clear
3:53 AM 60.1 °F - 48.9 °F 67% 30.00 in 10.0 mi Calm Calm - N/A   Clear
4:53 AM 55.0 °F - 48.9 °F 80% 30.01 in 10.0 mi Calm Calm - N/A   Clear
5:53 AM 55.9 °F - 48.9 °F 77% 30.03 in 10.0 mi Calm Calm - N/A   Clear
6:53 AM 63.0 °F - 50.0 °F 63% 30.04 in 10.0 mi Calm Calm - N/A   Clear
7:53 AM 64.9 °F - 51.1 °F 61% 30.06 in 10.0 mi ESE 3.5 mph - N/A   Partly Cloudy
8:53 AM 69.1 °F - 52.0 °F 54% 30.05 in 10.0 mi ESE 9.2 mph - N/A   Partly Cloudy
9:53 AM 73.0 °F - 54.0 °F 51% 30.05 in 10.0 mi East 8.1 mph - N/A   Partly Cloudy
10:53 AM 75.9 °F - 53.1 °F 45% 30.03 in 10.0 mi East 11.5 mph - N/A   Partly Cloudy
11:53 AM 77.0 °F - 50.0 °F 39% 30.02 in 10.0 mi East 12.7 mph 20.7 mph N/A   Partly Cloudy
12:53 PM 79.0 °F - 52.0 °F 39% 30.01 in 10.0 mi SE 12.7 mph 24.2 mph N/A   Scattered Clouds
1:53 PM 81.0 °F - 52.0 °F 36% 29.99 in 10.0 mi ESE 12.7 mph 21.9 mph N/A   Partly Cloudy
2:53 PM 80.1 °F 79.9 °F 53.1 °F 39% 29.98 in 10.0 mi East 11.5 mph 24.2 mph N/A   Mostly Cloudy
3:53 PM 81.0 °F - 48.0 °F 31% 29.97 in 10.0 mi East 15.0 mph 24.2 mph N/A   Mostly Cloudy
4:53 PM 79.0 °F - 51.1 °F 38% 29.97 in 10.0 mi ESE 18.4 mph 24.2 mph N/A   Mostly Cloudy
5:53 PM 77.0 °F - 55.9 °F 48% 29.97 in 10.0 mi East 15.0 mph - N/A   Mostly Cloudy
6:53 PM 75.0 °F - 52.0 °F 44% 29.97 in 10.0 mi ESE 9.2 mph - N/A   Mostly Cloudy
7:53 PM 73.0 °F - 54.0 °F 51% 29.97 in 10.0 mi East 5.8 mph - N/A   Mostly Cloudy
8:53 PM 72.0 °F - 54.0 °F 53% 29.97 in 10.0 mi ENE 4.6 mph - N/A   Mostly Cloudy
9:53 PM 71.1 °F - 54.0 °F 55% 29.98 in 10.0 mi East 4.6 mph - N/A   Overcast
10:53 PM 70.0 °F - 53.1 °F 55% 29.99 in 10.0 mi East 5.8 mph - N/A   Overcast
11:53 PM 68.0 °F - 54.0 °F 61% 29.99 in 10.0 mi Calm Calm - N/A   Clear